VIR423 MKJS-EGKK

Flight info

Callsign VIR423
Flight time N/A
Altitude 37000
Route ELUTU5 TILUP DCT ULDAR UM331 GHANN DCT FORST DCT ROSEA DCT PAARR DCT SMTTY DCT AVNEY DCT RENAH DCT CANEE/M085F370 DCT RUDLI DCT BALTN DCT SOORY NATZ ATSUR DCT GAPLI/N0487F370 DCT SIDDI DCT DAWLY DCT ELRIP DCT OTMET
Aircraft A35K/H-SDE2E3GHIJ3J4J5LM1ORWXY/LB1D1

Departure

Time 2026-05-06 23:39
Airport Sangster International Airport (MKJS)

Arrival

Time N/A
Airport London Gatwick Airport (EGKK)
Time Latitude Longitude Altitude Speed Heading
2026-05-06 23:20 18.50014 -77.91368 16 ft 0 kts 185°
2026-05-06 23:29 18.50033 -77.91366 16 ft 4 kts 185°
2026-05-06 23:29 18.50059 -77.91364 16 ft 2 kts 185°
2026-05-06 23:29 18.50082 -77.91360 16 ft 4 kts 206°
2026-05-06 23:30 18.50103 -77.91343 16 ft 4 kts 237°
2026-05-06 23:30 18.50115 -77.91318 16 ft 2 kts 244°
2026-05-06 23:30 18.50118 -77.91313 16 ft 0 kts 244°
2026-05-06 23:33 18.50117 -77.91313 16 ft 1 kts 244°
2026-05-06 23:33 18.50110 -77.91330 17 ft 8 kts 244°
2026-05-06 23:33 18.50085 -77.91427 16 ft 15 kts 263°
2026-05-06 23:34 18.50072 -77.91542 16 ft 17 kts 263°
2026-05-06 23:34 18.50044 -77.91662 16 ft 17 kts 248°
2026-05-06 23:34 18.49995 -77.91782 18 ft 18 kts 245°
2026-05-06 23:34 18.49939 -77.91906 18 ft 19 kts 245°
2026-05-06 23:35 18.49882 -77.92035 18 ft 20 kts 245°
2026-05-06 23:35 18.49823 -77.92172 18 ft 21 kts 245°
2026-05-06 23:35 18.49780 -77.92271 16 ft 11 kts 245°
2026-05-06 23:35 18.49759 -77.92318 16 ft 0 kts 245°
2026-05-06 23:36 18.49759 -77.92320 16 ft 1 kts 245°
2026-05-06 23:36 18.49751 -77.92338 16 ft 6 kts 245°
2026-05-06 23:37 18.49746 -77.92388 16 ft 7 kts 294°
2026-05-06 23:37 18.49791 -77.92424 16 ft 12 kts 332°
2026-05-06 23:37 18.49858 -77.92452 16 ft 7 kts 358°
2026-05-06 23:37 18.49895 -77.92416 22 ft 8 kts 58°
2026-05-06 23:38 18.49900 -77.92406 17 ft 0 kts 65°
2026-05-06 23:38 18.49909 -77.92385 21 ft 16 kts 65°
2026-05-06 23:38 18.49994 -77.92192 19 ft 73 kts 66°
2026-05-06 23:38 18.50324 -77.91434 18 ft 153 kts 65°
2026-05-06 23:39 18.50828 -77.90281 502 ft 184 kts 67°
2026-05-06 23:39 18.51634 -77.89151 1299 ft 204 kts 43°
2026-05-06 23:39 18.52911 -77.88532 2037 ft 208 kts 14°
2026-05-06 23:39 18.54438 -77.88543 2278 ft 230 kts
2026-05-06 23:40 18.56100 -77.88450 2525 ft 248 kts 10°
2026-05-06 23:40 18.57859 -77.88151 2892 ft 262 kts 15°
2026-05-06 23:40 18.59664 -77.87715 3416 ft 269 kts 18°
2026-05-06 23:40 18.61488 -77.87206 4087 ft 272 kts 19°
2026-05-06 23:41 18.63312 -77.86667 4789 ft 272 kts 19°
2026-05-06 23:41 18.65113 -77.86114 5484 ft 273 kts 19°
2026-05-06 23:41 18.66941 -77.85546 6150 ft 275 kts 19°
2026-05-06 23:41 18.68781 -77.84982 6801 ft 276 kts 19°
2026-05-06 23:42 18.70632 -77.84401 7377 ft 281 kts 19°
2026-05-06 23:42 18.72518 -77.83798 8016 ft 283 kts 20°
2026-05-06 23:42 18.74408 -77.83185 8670 ft 286 kts 19°
2026-05-06 23:42 18.76324 -77.82572 9283 ft 289 kts 19°
2026-05-06 23:43 18.78257 -77.81956 9861 ft 292 kts 19°
2026-05-06 23:43 18.80234 -77.81324 10322 ft 302 kts 18°
2026-05-06 23:43 18.82297 -77.80664 10587 ft 317 kts 18°
2026-05-06 23:43 18.84456 -77.79976 10832 ft 331 kts 18°
2026-05-06 23:44 18.86710 -77.79256 11085 ft 345 kts 18°
2026-05-06 23:44 18.89054 -77.78507 11323 ft 358 kts 17°
2026-05-06 23:44 18.91484 -77.77730 11555 ft 371 kts 17°
2026-05-06 23:44 18.93994 -77.76929 11779 ft 382 kts 17°
2026-05-06 23:45 18.96582 -77.76102 11986 ft 393 kts 17°
2026-05-06 23:45 18.99261 -77.75245 12300 ft 400 kts 17°
2026-05-06 23:45 19.01917 -77.74452 12715 ft 403 kts 13°
2026-05-06 23:45 19.04694 -77.73983 13156 ft 406 kts
2026-05-06 23:46 19.07527 -77.73814 13555 ft 410 kts
2026-05-06 23:46 19.10388 -77.73691 13961 ft 413 kts
2026-05-06 23:46 19.13267 -77.73564 14392 ft 415 kts
2026-05-06 23:46 19.16151 -77.73344 14831 ft 417 kts
2026-05-06 23:47 19.18976 -77.72619 15314 ft 418 kts 17°
2026-05-06 23:47 19.21704 -77.71535 15777 ft 420 kts 26°
2026-05-06 23:47 19.24093 -77.69766 16200 ft 422 kts 43°
2026-05-06 23:47 19.26051 -77.67379 16588 ft 426 kts 51°
2026-05-06 23:48 19.27855 -77.64867 16958 ft 429 kts 52°
2026-05-06 23:48 19.29670 -77.62296 17381 ft 431 kts 52°
2026-05-06 23:48 19.31468 -77.59733 17760 ft 434 kts 52°
2026-05-06 23:48 19.33268 -77.57159 18143 ft 436 kts 52°
2026-05-06 23:49 19.35076 -77.54567 18519 ft 438 kts 52°
2026-05-06 23:49 19.36884 -77.51965 18903 ft 440 kts 52°
2026-05-06 23:49 19.38700 -77.49352 19276 ft 441 kts 52°
2026-05-06 23:49 19.40522 -77.46727 19637 ft 443 kts 52°
2026-05-06 23:50 19.42348 -77.44089 19999 ft 444 kts 52°
2026-05-06 23:50 19.46044 -77.38735 20694 ft 448 kts 52°
2026-05-06 23:50 19.47882 -77.36066 21036 ft 450 kts 52°
2026-05-06 23:51 19.49730 -77.33378 21385 ft 451 kts 52°
2026-05-06 23:51 19.51584 -77.30685 21726 ft 453 kts 51°
2026-05-06 23:51 19.53659 -77.28246 22029 ft 451 kts 39°
2026-05-06 23:51 19.56236 -77.26369 22356 ft 449 kts 26°
2026-05-06 23:52 19.59061 -77.24956 22707 ft 449 kts 22°
2026-05-06 23:52 19.61935 -77.23637 23037 ft 451 kts 22°
2026-05-06 23:52 19.64823 -77.22327 23350 ft 452 kts 21°
2026-05-06 23:52 19.67721 -77.21013 23689 ft 453 kts 21°
2026-05-06 23:53 19.70593 -77.19712 23997 ft 455 kts 21°
2026-05-06 23:53 19.73549 -77.18373 24318 ft 457 kts 21°
2026-05-06 23:53 19.76484 -77.17046 24610 ft 460 kts 21°
2026-05-06 23:53 19.79440 -77.15711 24883 ft 463 kts 21°
2026-05-06 23:54 19.82410 -77.14369 25208 ft 465 kts 21°
2026-05-06 23:54 19.85395 -77.13022 25553 ft 467 kts 21°
2026-05-06 23:54 19.88390 -77.11666 25863 ft 470 kts 22°
2026-05-06 23:54 19.91311 -77.10067 26152 ft 474 kts 30°
2026-05-06 23:55 19.94039 -77.08073 26508 ft 478 kts 35°
2026-05-06 23:55 19.96670 -77.05895 26860 ft 481 kts 37°
2026-05-06 23:55 19.99253 -77.03606 27193 ft 484 kts 38°
2026-05-06 23:55 20.01814 -77.01267 27550 ft 487 kts 39°
2026-05-06 23:56 20.04383 -76.98900 27840 ft 491 kts 39°
2026-05-06 23:56 20.06976 -76.96518 28173 ft 494 kts 39°
2026-05-06 23:56 20.09554 -76.94162 28505 ft 496 kts 38°
2026-05-06 23:56 20.12218 -76.91740 28847 ft 498 kts 38°
2026-05-06 23:57 20.14862 -76.89343 29163 ft 500 kts 38°
2026-05-06 23:57 20.17506 -76.86951 29633 ft 498 kts 38°
2026-05-06 23:57 20.20148 -76.84561 30085 ft 497 kts 38°
2026-05-06 23:57 20.22783 -76.82179 30500 ft 496 kts 38°
2026-05-06 23:58 20.25409 -76.79802 30973 ft 493 kts 38°
2026-05-06 23:58 20.28017 -76.77439 31447 ft 491 kts 38°
2026-05-06 23:58 20.30610 -76.75089 31902 ft 488 kts 38°
2026-05-06 23:58 20.33195 -76.72747 32309 ft 486 kts 38°
2026-05-06 23:59 20.35771 -76.70412 32723 ft 484 kts 38°
2026-05-06 23:59 20.38329 -76.68092 33174 ft 482 kts 38°
2026-05-06 23:59 20.40875 -76.65781 33544 ft 480 kts 38°
2026-05-06 23:59 20.43409 -76.63480 33893 ft 478 kts 38°
2026-05-07 00:00 20.45939 -76.61184 34247 ft 476 kts 38°
2026-05-07 00:00 20.48457 -76.58894 34589 ft 474 kts 38°
2026-05-07 00:00 20.50967 -76.56612 34856 ft 474 kts 38°
2026-05-07 00:00 20.52627 -76.55102 35043 ft 473 kts 38°
2026-05-07 00:01 20.55967 -76.52062 35446 ft 471 kts 37°
2026-05-07 00:01 20.58425 -76.49822 35720 ft 470 kts 37°
2026-05-07 00:01 20.60978 -76.47497 35965 ft 470 kts 37°
2026-05-07 00:01 20.63458 -76.45237 36219 ft 468 kts 37°
2026-05-07 00:02 20.65939 -76.42976 36416 ft 467 kts 37°
2026-05-07 00:02 20.68411 -76.40721 36597 ft 467 kts 37°
2026-05-07 00:02 20.70886 -76.38463 36781 ft 467 kts 37°
2026-05-07 00:02 20.73356 -76.36206 36976 ft 467 kts 37°
2026-05-07 00:03 20.78328 -76.31666 37018 ft 471 kts 37°
2026-05-07 00:03 20.83304 -76.27091 37016 ft 471 kts 37°
2026-05-07 00:04 20.88189 -76.22507 37017 ft 469 kts 38°